Simultaneous Nadir Overpasses (SNOs) Predictions

Prediction of SNOs between GOES-15 and METOP-B Satellite Orbit:

Table of predicted SNOs for the next 14.0 days since TLE Epoch: 9/17/2022
Index Date Time (GOES-15) GOES-15 Lat,Lon METOP-B Lat,Lon Distance(km) Time Diff (sec)
1 09/17/2022 06:15:27 0.26,-127.70 -0.48,-131.01 376.77 80
2 09/18/2022 05:54:49 0.24,-127.73 0.63,-126.01 195.84 80
3 09/19/2022 18:11:02 -0.26,-127.82 0.38,-130.58 315.00 80
4 09/20/2022 17:53:03 -0.24,-127.85 -0.72,-125.58 257.98 80
5 09/22/2022 06:12:07 0.27,-127.86 -0.24,-130.20 265.51 80
6 09/23/2022 05:48:48 0.25,-127.89 0.87,-125.20 306.59 80
7 09/24/2022 18:07:42 -0.27,-127.97 0.13,-129.77 205.39 80
8 09/25/2022 17:49:43 -0.26,-128.00 -0.98,-124.78 367.17 80
9 09/27/2022 06:08:45 0.28,-128.01 -0.03,-129.38 156.12 80
10 09/28/2022 05:45:27 0.26,-128.03 1.08,-124.39 415.41 80
11 09/29/2022 18:04:20 -0.28,-128.09 -0.08,-128.95 98.25 80
12 09/30/2022 17:46:22 -0.27,-128.11 -1.20,-123.96 473.38 80
